When you browse on this site, cookies collect data to enhance your experience and personalize the content and advertising you see.
Visit our Privacy Policy to learn more. By continuing to use the site, you agree to this use of cookies and data.
  • In Austria
  • List of Countries
  • For 7 days
  • Water Temperature
  • Satellite Maps
  • Weather Map
  • News
  • Weather Widgets
  • user-avatar
    Login

    Hourly Weather Ordino

    Today, 25 June, Tuesday

    Time Temperature Precipitation Wind Pressure Humidity
    00:00 +16°C° 0 mm 2 mps 635 mmHg 49%
    01:00 +16°C° 0 mm 2 mps 635 mmHg 49%
    02:00 +16°C° 0 mm 2 mps 635 mmHg 48%
    03:00 +15°C° 0 mm 2 mps 635 mmHg 47%
    04:00 +16°C° 0 mm 2 mps 635 mmHg 48%
    05:00 +17°C° 0 mm 2 mps 636 mmHg 49%
    06:00 +19°C° 0 mm 1 mps 637 mmHg 50%
    07:00 +20°C° 0 mm 2 mps 638 mmHg 46%
    08:00 +24°C° 0 mm 2 mps 639 mmHg 42%
    09:00 +26°C° 0 mm 2 mps 640 mmHg 38%
    10:00 +27°C° 0 mm 2 mps 640 mmHg 34%
    11:00 +28°C° 0 mm 2 mps 640 mmHg 31%
    12:00 +29°C° 0 mm 2 mps 640 mmHg 28%
    13:00 +29°C° 0 mm 2 mps 640 mmHg 29%
    14:00 +29°C° 0 mm 2 mps 640 mmHg 31%
    15:00 +29°C° 0 mm 2 mps 640 mmHg 32%
    16:00 +28°C° 0 mm 1 mps 640 mmHg 39%
    17:00 +27°C° 0 mm 1 mps 639 mmHg 47%
    18:00 +26°C° 0 mm 1 mps 639 mmHg 54%
    19:00 +24°C° 0 mm 1 mps 639 mmHg 55%
    20:00 +22°C° 0 mm 1 mps 638 mmHg 57%
    21:00 +19°C° 0 mm 2 mps 638 mmHg 58%
    22:00 +19°C° 0 mm 2 mps 638 mmHg 55%
    23:00 +18°C° 0 mm 2 mps 638 mmHg 52%

    Tomorrow, 26 June, Wednesday

    Time Temperature Precipitation Wind Pressure Humidity
    00:00 +18°C° 0 mm 2 mps 638 mmHg 50%
    01:00 +18°C° 0 mm 2 mps 638 mmHg 46%
    02:00 +18°C° 0 mm 2 mps 638 mmHg 43%
    03:00 +18°C° 0 mm 2 mps 638 mmHg 40%
    04:00 +18°C° 0 mm 2 mps 638 mmHg 41%
    05:00 +19°C° 0 mm 2 mps 638 mmHg 42%
    06:00 +20°C° 0 mm 2 mps 639 mmHg 42%
    07:00 +24°C° 0 mm 2 mps 640 mmHg 36%
    08:00 +26°C° 0 mm 3 mps 641 mmHg 29%
    09:00 +29°C° 0 mm 3 mps 642 mmHg 23%
    10:00 +30°C° 0 mm 4 mps 642 mmHg 22%
    11:00 +32°C° 0 mm 4 mps 642 mmHg 21%
    12:00 +33°C° 0 mm 4 mps 642 mmHg 19%
    13:00 +33°C° 0 mm 4 mps 642 mmHg 20%
    14:00 +32°C° 0 mm 4 mps 642 mmHg 21%
    15:00 +32°C° 0 mm 4 mps 642 mmHg 22%
    16:00 +30°C° 0 mm 3 mps 641 mmHg 29%
    17:00 +28°C° 0 mm 3 mps 640 mmHg 36%
    18:00 +27°C° 0 mm 2 mps 640 mmHg 43%
    19:00 +25°C° 0 mm 2 mps 639 mmHg 42%
    20:00 +23°C° 0 mm 2 mps 639 mmHg 42%
    21:00 +20°C° 0 mm 2 mps 639 mmHg 42%
    22:00 +20°C° 0 mm 2 mps 639 mmHg 38%
    23:00 +20°C° 0 mm 2 mps 639 mmHg 34%

    Day after tomorrow, 27 June, Thursday

    Time Temperature Precipitation Wind Pressure Humidity
    00:00 +20°C° 0 mm 2 mps 639 mmHg 31%
    01:00 +20°C° 0 mm 2 mps 639 mmHg 29%
    02:00 +20°C° 0 mm 2 mps 639 mmHg 28%
    03:00 +19°C° 0 mm 2 mps 638 mmHg 27%
    04:00 +20°C° 0 mm 2 mps 639 mmHg 30%
    05:00 +21°C° 0 mm 2 mps 639 mmHg 33%
    06:00 +23°C° 0 mm 2 mps 640 mmHg 36%
    07:00 +25°C° 0 mm 1 mps 641 mmHg 31%
    08:00 +28°C° 0 mm 1 mps 642 mmHg 26%
    09:00 +31°C° 0 mm 1 mps 643 mmHg 21%
    10:00 +32°C° 0 mm 1 mps 643 mmHg 19%
    11:00 +33°C° 0 mm 1 mps 643 mmHg 18%
    12:00 +35°C° 0 mm 2 mps 643 mmHg 16%
    13:00 +34°C° 0 mm 1 mps 643 mmHg 17%
    14:00 +33°C° 0 mm 1 mps 642 mmHg 18%
    15:00 +33°C° 0 mm 1 mps 642 mmHg 19%
    16:00 +32°C° 0 mm 1 mps 641 mmHg 27%
    17:00 +30°C° 0 mm 1 mps 640 mmHg 35%
    18:00 +28°C° 0 mm 1 mps 640 mmHg 43%
    19:00 +26°C° 0 mm 1 mps 639 mmHg 41%
    20:00 +24°C° 0 mm 1 mps 639 mmHg 39%
    21:00 +22°C° 0 mm 1 mps 638 mmHg 36%
    22:00 +21°C° 0 mm 2 mps 638 mmHg 34%
    23:00 +21°C° 0 mm 2 mps 638 mmHg 32%

    28 June, Friday

    Time Temperature Precipitation Wind Pressure Humidity
    00:00 +21°C° 0 mm 2 mps 638 mmHg 31%
    01:00 +20°C° 0 mm 2 mps 638 mmHg 29%
    02:00 +20°C° 0 mm 2 mps 637 mmHg 27%
    03:00 +20°C° 0 mm 2 mps 637 mmHg 25%
    04:00 +21°C° 0 mm 2 mps 637 mmHg 28%
    05:00 +21°C° 0 mm 2 mps 638 mmHg 31%
    06:00 +23°C° 0 mm 2 mps 638 mmHg 34%
    07:00 +25°C° 0 mm 2 mps 639 mmHg 30%
    08:00 +28°C° 0 mm 2 mps 640 mmHg 26%
    09:00 +31°C° 0 mm 2 mps 641 mmHg 22%
    10:00 +31°C° 0 mm 2 mps 641 mmHg 20%
    11:00 +32°C° 0 mm 2 mps 640 mmHg 19%
    12:00 +34°C° 0 mm 3 mps 640 mmHg 17%
    13:00 +33°C° 0 mm 3 mps 640 mmHg 18%
    14:00 +33°C° 0 mm 3 mps 640 mmHg 19%
    15:00 +33°C° 0 mm 3 mps 639 mmHg 19%
    16:00 +31°C° 0 mm 2 mps 639 mmHg 28%
    17:00 +29°C° 0 mm 2 mps 638 mmHg 36%
    18:00 +27°C° 0 mm 1 mps 638 mmHg 45%
    19:00 +26°C° 0 mm 2 mps 637 mmHg 42%
    20:00 +24°C° 0 mm 2 mps 637 mmHg 40%
    21:00 +21°C° 0 mm 2 mps 636 mmHg 38%
    22:00 +21°C° 0 mm 2 mps 636 mmHg 36%
    23:00 +21°C° 0 mm 2 mps 636 mmHg 34%

    29 June, Saturday

    Time Temperature Precipitation Wind Pressure Humidity
    00:00 +20°C° 0 mm 2 mps 636 mmHg 33%
    01:00 +20°C° 0 mm 2 mps 636 mmHg 33%
    02:00 +20°C° 0 mm 2 mps 635 mmHg 34%
    03:00 +20°C° 0 mm 2 mps 635 mmHg 35%
    04:00 +22°C° 0 mm 1 mps 636 mmHg 37%
    05:00 +22°C° 0 mm 1 mps 636 mmHg 39%
    06:00 +23°C° 0 mm 1 mps 636 mmHg 41%
    07:00 +25°C° 0 mm 1 mps 637 mmHg 36%
    08:00 +28°C° 0 mm 1 mps 638 mmHg 30%
    09:00 +30°C° 0 mm 1 mps 639 mmHg 25%
    10:00 +31°C° 0 mm 1 mps 639 mmHg 24%
    11:00 +32°C° 0 mm 1 mps 640 mmHg 23%
    12:00 +33°C° 0 mm 1 mps 640 mmHg 22%
    13:00 +32°C° 0 mm 2 mps 639 mmHg 26%
    14:00 +31°C° 0 mm 2 mps 639 mmHg 30%
    15:00 +29°C° 0 mm 2 mps 638 mmHg 33%
    16:00 +28°C° 0 mm 2 mps 638 mmHg 41%
    17:00 +27°C° 0 mm 2 mps 638 mmHg 48%
    18:00 +27°C° 0 mm 1 mps 638 mmHg 55%
    19:00 +24°C° 0.1 mm 1 mps 637 mmHg 59%
    20:00 +22°C° 0.1 mm 1 mps 637 mmHg 64%
    21:00 +20°C° 0.1 mm 1 mps 637 mmHg 69%
    22:00 +20°C° 0 mm 1 mps 637 mmHg 65%
    23:00 +20°C° 0 mm 1 mps 637 mmHg 62%

    30 June, Sunday

    Time Temperature Precipitation Wind Pressure Humidity
    00:00 +20°C° 0 mm 1 mps 637 mmHg 58%
    01:00 +20°C° 0 mm 1 mps 637 mmHg 58%
    02:00 +19°C° 0 mm 1 mps 637 mmHg 58%
    03:00 +19°C° 0 mm 1 mps 637 mmHg 57%
    04:00 +20°C° 0 mm 1 mps 637 mmHg 57%
    05:00 +21°C° 0 mm 1 mps 638 mmHg 56%
    06:00 +22°C° 0 mm 1 mps 638 mmHg 56%
    07:00 +25°C° 0 mm 1 mps 639 mmHg 47%
    08:00 +27°C° 0 mm 1 mps 640 mmHg 38%
    09:00 +30°C° 0 mm 1 mps 641 mmHg 29%
    10:00 +30°C° 0 mm 1 mps 641 mmHg 26%
    11:00 +31°C° 0 mm 2 mps 641 mmHg 24%
    12:00 +32°C° 0 mm 2 mps 641 mmHg 22%
    13:00 +32°C° 0 mm 2 mps 641 mmHg 23%
    14:00 +32°C° 0 mm 2 mps 640 mmHg 24%
    15:00 +31°C° 0 mm 2 mps 640 mmHg 25%
    16:00 +30°C° 0 mm 2 mps 640 mmHg 35%
    17:00 +28°C° 0 mm 1 mps 639 mmHg 44%
    18:00 +27°C° 0 mm 1 mps 639 mmHg 54%
    19:00 +25°C° 0.1 mm 1 mps 638 mmHg 60%
    20:00 +23°C° 0.1 mm 1 mps 638 mmHg 66%
    21:00 +21°C° 0.1 mm 1 mps 637 mmHg 73%
    22:00 +20°C° 0 mm 1 mps 637 mmHg 71%
    23:00 +20°C° 0 mm 1 mps 637 mmHg 69%
    Show more